Simultaneous Nadir Overpasses (SNOs) Predictions

Prediction of SNOs between NOAA-19 and METOP-C Satellite Orbit:

Table of predicted SNOs for the next 14.0 days since TLE Epoch: 7/9/2022
Index Date (NOAA-19) Time (NOAA-19) Lat,Lon (NOAA-19) SZA (NOAA-19 ) Date (METOP-C) Time (METOP-C) Lat,Lon (METOP-C) SZA (METOP-C ) Distance(km) Time Diff (sec)
1 07/13/2022 04:25:56 -80.86, -33.37 119.56 07/13/2022 04:27:10 -80.86, -33.30 119.52 1.11 74
2 07/13/2022 05:16:58 80.86, 134.02 60.46 07/13/2022 05:17:50 80.86, 133.91 60.47 1.95 52
3 07/13/2022 06:07:56 -80.86, -58.92 119.55 07/13/2022 06:08:32 -80.85, -58.79 119.53 2.41 36
4 07/13/2022 06:58:57 80.86, 108.83 60.50 07/13/2022 06:59:11 80.87, 108.78 60.51 1.52 14
5 07/13/2022 07:49:55 -80.86, -84.09 119.52 07/13/2022 07:49:53 -80.86, -83.93 119.50 2.97 2
6 07/13/2022 08:40:57 80.86, 83.28 60.50 07/13/2022 08:40:33 80.86, 83.29 60.50 0.20 24
7 07/13/2022 09:31:54 -80.85,-109.27 119.48 07/13/2022 09:31:15 -80.86,-109.42 119.51 2.60 39
8 07/13/2022 10:22:57 80.86, 57.72 60.51 07/13/2022 10:21:55 80.85, 57.80 60.49 1.57 62



Historial Predications of SNOs between NOAA-19 and METOP-C
